Regional Weather Roundup
Issued by NWS

Home | Current Version | Previous Version | Text Only | Print | Product List | Glossary On
Versions: 1 2 3 4 5 6 7 8 9 10 11 12 13 14 15 16 17 18 19 20 21 22 23 24 25 26 27 28 29 30 31 32 33 34 35 36 37 38 39 40 41 42 43 44 45 46 47 48 49 50
000
ASUS43 KDTX 251410
RWRMI
MICHIGAN HOURLY REGIONAL WEATHER ROUNDUP
NATIONAL WEATHER SERVICE DETROIT/PONTIAC MI
1000 AM EDT SAT OCT 25 2014

NOTE: "FAIR" INDICATES FEW OR NO CLOUDS BELOW 12,000 FEET WITH NO
SIGNIFICANT WEATHER AND/OR OBSTRUCTION TO VISIBILITY.

MIZ047>049-052>055-059>063-066>070-074>076-081>083-251500-
SOUTHEAST LOWER MICHIGAN

CITY           SKY/WX    TMP DP  RH WIND       PRES   REMARKS
ADRIAN         MOSUNNY   54  51  90 W6        29.87F FOG
ALMA           CLOUDY    55  52  89 W12G18    29.81S FOG
ANN ARBOR      CLOUDY    54  49  83 SW8       29.83F HAZE
BAD AXE        CLOUDY    52  51  97 W12G21    29.74F FOG
CARO           CLOUDY    53  51  92 W8        29.77R FOG
DETROIT CITY   SUNNY     58  49  72 W10       29.81F
DETROIT        PTSUNNY   55  50  82 SW12      29.83F
FLINT          CLOUDY    57  51  80 W9        29.80F HAZE
GROSSE ILE     SUNNY     55  52  88 SW10      29.82F
HILLSDALE      CLOUDY    57  56  95 W10G17    29.86F FOG
HOWELL         CLOUDY    55  52  90 W13       29.80F FOG

CITY           SKY/WX    TMP DP  RH WIND       PRES   REMARKS
JACKSON        CLOUDY    55  52  89 W13G18    29.84F
LAMBERTVILLE   MOSUNNY   59  52  77 W8G18     29.87S
LANSING        CLOUDY    56  52  86 W21       29.82F FOG
LAPEER         CLOUDY    55  50  82 W10G18    29.78F
MASON          CLOUDY    55  52  88 W7        29.82F FOG
MONROE         SUNNY     55  52  88 W13       29.84S FOG
PONTIAC        PTSUNNY   55  49  80 W14G20    29.79F
PORT HOPE        N/A     53  48  83 W8G18     29.70F
PORT HURON     SUNNY     54  50  87 SW6       29.77F
TRI CITIES     CLOUDY    55  51  86 W13       29.78F FOG
TROY           SUNNY     55  49  80 SW9       29.82F
SAGINAW HB     CLOUDY    54  54 100 W13       29.78R FOG
$$
MIZ043>046-050>051-056>058-064>065-071>073-077>080-251500-
SOUTHWEST LOWER MICHIGAN

CITY           SKY/WX    TMP DP  RH WIND       PRES   REMARKS
BATTLE CREEK   CLOUDY    57  52  83 W15       29.87S HAZE
BENTON HARBOR  CLOUDY    56  55  97 SW10      29.90R FOG
BIG RAPIDS     CLOUDY    56  55  97 W8        29.80S
COLDWATER      CLOUDY    57  55  92 W10G17    29.88S FOG
FREMONT        CLOUDY    56  53  91 W9        29.84R FOG
HOLLAND        CLOUDY    58  54  86 W13       29.88R FOG
GRAND RAPIDS   CLOUDY    56  53  90 W10       29.86R FOG
IONIA          CLOUDY    55  54  94 W12       29.84R FOG
KALAMAZOO      CLOUDY    57  53  86 W14G21    29.88S FOG
LUDINGTON      SUNNY     56  53  90 W12       29.83S FOG
MARSHALL       CLOUDY    55  52  90 W9        29.85F FOG
MOUNT PLEASANT SUNNY     57  52  85 W10       29.78S HAZE
MUSKEGON       CLOUDY    57  53  86 W10       29.86R FOG
SOUTH HAVEN    CLOUDY    58  56  92 W9        29.89S FOG
$$
MIZ016>042-251500-
NORTHERN LOWER MICHIGAN

CITY           SKY/WX    TMP DP  RH WIND       PRES   REMARKS
ALPENA         SUNNY     57  49  74 W9G20     29.67S
BEAVER ISLAND  SUNNY     55  50  85 W14       29.70S
BELLAIRE       SUNNY     57  49  75 W8        29.75S
CADILLAC       SUNNY     55  50  83 W13G20    29.78S
CHARLEVOIX     SUNNY     56  52  86 W15G22    29.74S
FRANKFORT      SUNNY     57  50  79 W10G17    29.78F
GAYLORD        MOSUNNY   53  48  83 W15G23    29.71S
GRAYLING       PTSUNNY   56  51  85 W10G18    29.74S
HARBOR SPRINGS SUNNY     56  51  83 W9G17     29.70S
HOUGHTON LAKE  SUNNY     55  49  80 W13       29.75S
MANISTEE       SUNNY     54  48  82 W13G18    29.82R
OSCODA         SUNNY     55  51  86 W14       29.68F
PELLSTON       SUNNY     56  48  74 W10G21    29.69S
TRAVERSE CITY  MOSUNNY   57  49  74 W10       29.75R
$$
MIZ007>008-015-251500-
EASTERN UPPER MICHIGAN

CITY           SKY/WX    TMP DP  RH WIND       PRES   REMARKS
KINROSS        SUNNY     52  48  87 W7        29.64S
MACKINAC ISLAN MOSUNNY   53  51  92 W12G18    29.66S
NEWBERRY       SUNNY     51  45  79 W12G23    29.65S
S. S. MARIE    SUNNY     54  43  66 W15G21    29.61S
MUNISING         N/A     56  38  50 NW10G18   29.68R
$$
MIZ004>006-011>014-085-251500-
CENTRAL UPPER MICHIGAN

CITY           SKY/WX    TMP DP  RH WIND       PRES   REMARKS
MANISTIQUE     SUNNY     53  46  75 W9        29.69S
ESCANABA       SUNNY     52  43  71 W12       29.72S
MENOMINEE      SUNNY     54  45  71 W6        29.78S
SAWYER-GWINN   SUNNY     52  36  54 W17G26    29.70R
$$
MIZ001>003-009>011-084-251500-
WESTERN UPPER MICHIGAN

CITY           SKY/WX    TMP DP  RH WIND       PRES   REMARKS
IRON MOUNTAIN  SUNNY     53  35  50 NW16G29   29.75R
HOUGHTON       MOSUNNY   51  36  56 W28G38    29.71S
COPPER HARBOR    N/A     53  36  52 N21G37    29.66S
IRONWOOD       SUNNY     48  36  61 W12G21    29.83R
$$

ABBREVIATIONS USED IN REMARKS
   TC - TEMPERATURE IN CELSIUS
  WCI - WIND CHILL INDEX
   HX - HEAT INDEX
  VSB - VISIBILITY




USA.gov is the U.S. government's official web portal to all federal, state and local government web resources and services.